Weather History for KAFF - December, 2013

Change the Weather History Date:

Tuesday, December 17, 2013

  Actual Average Record
Temperature  
Mean Temperature 38 °F -  
Max Temperature 54 °F 39 °F 64 °F (1998)
Min Temperature 23 °F 17 °F -7 °F (1996)
Degree Days  
Heating Degree Days 26    
Moisture  
Dew Point 13 °F    
Average Humidity 40    
Maximum Humidity 66    
Minimum Humidity 19    
Precipitation  
Precipitation 0.00 in - - ()
Sea Level Pressure  
Sea Level Pressure 30.29 in    
Wind  
Wind Speed 8 mph (ENE)    
Max Wind Speed 13 mph    
Max Gust Speed -    
Visibility 10 miles    
Events      
Averages and records for this station are not official NWS values.
T = Trace of Precipitation, MM = Missing Value Source: NWS Daily Summary

Daily Weather History Graph

Daily Weather History Graph

Search for Another Location

Airport or City:

Trip Planner

Search our weather history database for the weather conditions in past years. The results will help you decide how hot, cold, wet, or windy it might be!

Date:

Astronomy

Dec. 17, 2013 Rise Set
Actual Time 7:12 AM MST 4:38 PM MST
Civil Twilight 6:42 AM MST 5:08 PM MST
Nautical Twilight 6:08 AM MST 5:42 PM MST
Astronomical Twilight 5:36 AM MST 6:14 PM MST
Moon 5:20 PM MST (12/17) 7:11 AM MST (12/17)
Length of Visible Light 10h 26m
Length of Day
9h 26m
Full, 100% of the Moon is Illuminated
Dec 17
Full
Dec 25
Last Quarter
Jan 1
New
Jan 7
First Quarter
Jan 15
Full

Hourly Weather History & Observations

Time (MST) Temp. Windchill Dew Point Humidity Pressure Visibility Wind Dir Wind Speed Gust Speed Precip Events Conditions
12:58 AM 30.4 °F 22.9 °F 11.1 °F 45% 30.22 in 10.0 mi NE 8.1 mph - N/A   Clear
1:58 AM 29.7 °F 22.8 °F 9.5 °F 43% 30.22 in 10.0 mi NE 6.9 mph - N/A   Clear
2:58 AM 24.8 °F 16.1 °F 10.9 °F 56% 30.27 in 10.0 mi North 8.1 mph - N/A   Clear
3:58 AM 23.5 °F 13.7 °F 11.1 °F 59% 30.31 in 10.0 mi North 9.2 mph - N/A   Clear
4:58 AM 26.4 °F 18.0 °F 11.1 °F 53% 30.33 in 10.0 mi NE 8.1 mph - N/A   Clear
5:58 AM 24.4 °F 13.5 °F 10.8 °F 56% 30.38 in 10.0 mi NNE 11.5 mph - N/A   Clear
6:58 AM 23.0 °F 13.1 °F 11.3 °F 61% 30.45 in 10.0 mi North 9.2 mph - N/A   Clear
7:58 AM 24.8 °F 16.9 °F 14.7 °F 66% 30.47 in 10.0 mi NNE 6.9 mph - N/A   Clear
8:58 AM 34.2 °F 30.0 °F 15.3 °F 46% 30.44 in 10.0 mi North 4.6 mph - N/A   Clear
9:58 AM 46.4 °F 45.2 °F 14.0 °F 27% 30.36 in 10.0 mi South 3.5 mph - N/A   Clear
10:58 AM 49.6 °F - 13.5 °F 24% 30.32 in 10.0 mi SSE 6.9 mph - N/A   Clear
11:58 AM 51.6 °F - 14.0 °F 22% 30.27 in 10.0 mi SSE 5.8 mph - N/A   Clear
12:58 PM 53.6 °F - 12.7 °F 20% 30.25 in 10.0 mi South 9.2 mph - N/A   Clear
1:58 PM 54.0 °F - 12.6 °F 19% 30.23 in 10.0 mi South 10.4 mph - N/A   Clear
2:58 PM 52.9 °F - 11.8 °F 19% 30.26 in 10.0 mi South 11.5 mph - N/A   Clear
3:58 PM 49.5 °F - 12.7 °F 23% 30.27 in 10.0 mi South 9.2 mph - N/A   Clear
4:58 PM 44.1 °F 40.1 °F 14.0 °F 30% 30.30 in 10.0 mi South 6.9 mph - N/A   Clear
5:58 PM 38.7 °F - 15.4 °F 39% 30.34 in 10.0 mi Variable 1.2 mph - N/A   Clear
6:58 PM 27.5 °F 23.6 °F 15.8 °F 61% 30.38 in 10.0 mi North 3.5 mph - N/A   Clear
7:58 PM 27.9 °F 19.8 °F 17.1 °F 64% 30.34 in 10.0 mi NNW 8.1 mph - N/A   Clear
8:58 PM 32.4 °F 23.0 °F 15.6 °F 50% 30.25 in 10.0 mi North 12.7 mph - N/A   Clear
9:58 PM 35.8 °F 27.3 °F 11.7 °F 37% 30.14 in 10.0 mi NE 12.7 mph - N/A   Clear
10:58 PM 47.7 °F - 8.2 °F 20% 30.06 in 10.0 mi Variable 2.3 mph - N/A   Clear
11:58 PM 46.2 °F 42.7 °F 8.8 °F 22% 30.01 in 10.0 mi SE 6.9 mph - N/A   Clear